Regional Weather Roundup
Issued by NWS

Home | Current Version | Previous Version | Text Only | Print | Product List | Glossary Off
Versions: 1 2 3 4 5 6 7 8 9 10 11 12 13 14 15 16 17 18 19 20 21 22 23 24 25 26 27 28 29 30 31 32 33 34 35 36 37 38 39 40 41 42 43 44 45 46 47 48 49 50

644
ASUS43 KLMK 080910
RWRKY
KENTUCKY REGIONAL WEATHER ROUNDUP
NATIONAL WEATHER SERVICE LOUISVILLE KY
400 AM EST THU DEC 08 2016

NOTE "FAIR" INDICATES FEW OR NO CLOUDS BELOW 12,000 FEET
WITH NO SIGNIFICANT WEATHER AND/OR OBSTRUCTIONS TO VISIBILITY.

KYZ001>023-026-027-061>063-070>075-081000-
WESTERN AND SOUTH CENTRAL KENTUCKY

CITY           SKY/WX    TMP DP  RH WIND       PRES   REMARKS
PADUCAH        CLOUDY    35  21  56 NW8       30.35R WCI  29
HENDERSON      CLOUDY    32  19  59 W9        30.32S WCI  24
OWENSBORO      MOCLDY    32  21  64 NW15      30.32R WCI  22
HOPKINSVILLE   CLOUDY    34  23  64 NW5       30.31R WCI  29
BOWLING GREEN  CLOUDY    35  21  56 NW6       30.30R WCI  30
GLASGOW        CLOUDY    33  23  65 NW6       30.27R WCI  28
$$

KYZ024-025-028>034-038-045-046-053-081000-
NORTH CENTRAL KENTUCKY

CITY           SKY/WX    TMP DP  RH WIND       PRES   REMARKS
LOUISVILLE/SDF MOCLDY    32  19  58 NW10      30.26R WCI  24
LOUISVILLE/LOU CLOUDY    33  20  58 NW14      30.26R WCI  23
FORT KNOX      MOCLDY    30  21  69 W10       30.24R WCI  21
$$

KYZ035>037-039>044-047>052-055>060-089>105-081000-
NORTHEAST KENTUCKY

CITY           SKY/WX    TMP DP  RH WIND       PRES   REMARKS
LEXINGTON      CLOUDY    32  22  66 W8        30.21R WCI  25
COVINGTON      CLOUDY    29  22  75 W12       30.18R WCI  19
FRANKFORT      CLOUDY    32  21  64 W5        30.21R WCI  27
$$

KYZ054-064>069-076>088-106>120-081000-
SOUTHEAST KENTUCKY

CITY           SKY/WX    TMP DP  RH WIND       PRES   REMARKS
JACKSON        CLOUDY    33  24  69 VRB5      30.15R WCI  29
LONDON         CLOUDY    33  24  69 W8        30.19R WCI  26
SOMERSET       CLOUDY    32  23  69 W3        30.24R
MIDDLESBORO    CLOUDY    37  22  53 N5        30.19R WCI  34
MONTICELLO     CLOUDY    34  25  69 NW8       30.25R WCI  27
$$





USA.gov is the U.S. government's official web portal to all federal, state and local government web resources and services.